HYPE145 LRSB-LRBS

Flight info

Callsign HYPE145
Flight time 0h 59m
Altitude 11000
Route TALMACIU GREBLEŞTI COPĂCENI CURTEA DE ARGEŞ MERIŞANI GĂEŞTI DCT FLR DCT TRESTIENI
Aircraft H500/L-SDFGRY/C

Departure

Time 2026-05-04 20:02
Airport Sibiu International Airport (LRSB)

Arrival

Time 2026-05-04 21:01
Airport Bucharest Băneasa Aurel Vlaicu International Airport (LRBS)
Time Latitude Longitude Altitude Speed Heading
2026-05-04 19:46 45.78863 24.09806 1458 ft 0 kts 188°
2026-05-04 20:00 45.78838 24.09818 1505 ft 7 kts 187°
2026-05-04 20:00 45.78778 24.09836 1560 ft 11 kts 224°
2026-05-04 20:00 45.78713 24.09832 1577 ft 11 kts 210°
2026-05-04 20:00 45.78628 24.09851 1583 ft 14 kts 205°
2026-05-04 20:01 45.78541 24.09881 1595 ft 2 kts 265°
2026-05-04 20:01 45.78583 24.09664 1751 ft 48 kts 269°
2026-05-04 20:01 45.78571 24.09061 1884 ft 70 kts 267°
2026-05-04 20:01 45.78567 24.08314 2018 ft 77 kts 271°
2026-05-04 20:02 45.78617 24.07454 2207 ft 101 kts 278°
2026-05-04 20:02 45.78616 24.06326 2341 ft 123 kts 276°
2026-05-04 20:02 45.78689 24.05090 2560 ft 126 kts 278°
2026-05-04 20:02 45.78779 24.03831 2794 ft 132 kts 278°
2026-05-04 20:03 45.78851 24.02477 2896 ft 139 kts 276°
2026-05-04 20:03 45.78898 24.01071 2969 ft 142 kts 274°
2026-05-04 20:03 45.78880 23.99643 3014 ft 146 kts 263°
2026-05-04 20:03 45.78408 23.98350 2997 ft 148 kts 229°
2026-05-04 20:04 45.77531 23.97706 3183 ft 140 kts 196°
2026-05-04 20:04 45.76576 23.97661 3419 ft 135 kts 180°
2026-05-04 20:04 45.75652 23.97847 3680 ft 134 kts 168°
2026-05-04 20:04 45.74794 23.98337 3898 ft 136 kts 148°
2026-05-04 20:05 45.74240 23.99427 3992 ft 141 kts 111°
2026-05-04 20:05 45.74093 24.00815 4143 ft 141 kts 95°
2026-05-04 20:05 45.73996 24.02208 4297 ft 140 kts 95°
2026-05-04 20:05 45.73892 24.03593 4453 ft 140 kts 95°
2026-05-04 20:06 45.73640 24.04938 4620 ft 142 kts 115°
2026-05-04 20:06 45.73088 24.06116 4787 ft 143 kts 128°
2026-05-04 20:06 45.72456 24.07228 4938 ft 144 kts 123°
2026-05-04 20:06 45.72127 24.08571 5027 ft 143 kts 99°
2026-05-04 20:07 45.72018 24.09975 5168 ft 141 kts 91°
2026-05-04 20:07 45.71973 24.11374 5301 ft 140 kts 89°
2026-05-04 20:07 45.71942 24.12775 5446 ft 140 kts 89°
2026-05-04 20:07 45.71907 24.14143 5570 ft 139 kts 89°
2026-05-04 20:08 45.71860 24.15524 5694 ft 139 kts 90°
2026-05-04 20:08 45.71807 24.16906 5864 ft 139 kts 90°
2026-05-04 20:08 45.71750 24.18287 6018 ft 139 kts 90°
2026-05-04 20:08 45.71650 24.19656 6124 ft 140 kts 101°
2026-05-04 20:09 45.71171 24.20893 6278 ft 144 kts 126°
2026-05-04 20:09 45.70499 24.21962 6422 ft 145 kts 133°
2026-05-04 20:09 45.69779 24.22977 6568 ft 146 kts 134°
2026-05-04 20:09 45.69043 24.24032 6556 ft 153 kts 132°
2026-05-04 20:10 45.68311 24.25160 6553 ft 156 kts 130°
2026-05-04 20:10 45.67601 24.26342 6549 ft 156 kts 127°
2026-05-04 20:10 45.66807 24.27386 6544 ft 153 kts 147°
2026-05-04 20:10 45.65856 24.27912 6547 ft 142 kts 165°
2026-05-04 20:11 45.64897 24.28139 6552 ft 139 kts 173°
2026-05-04 20:11 45.63965 24.28250 6544 ft 133 kts 176°
2026-05-04 20:11 45.63038 24.28329 6560 ft 139 kts 180°
2026-05-04 20:11 45.62019 24.28378 6551 ft 153 kts 179°
2026-05-04 20:12 45.60947 24.28468 6549 ft 154 kts 176°
2026-05-04 20:12 45.59865 24.28609 6551 ft 157 kts 176°
2026-05-04 20:12 45.58783 24.28787 6546 ft 155 kts 174°
2026-05-04 20:12 45.57709 24.28985 6553 ft 157 kts 173°
2026-05-04 20:13 45.56625 24.29193 6540 ft 154 kts 174°
2026-05-04 20:13 45.55568 24.29396 6556 ft 155 kts 173°
2026-05-04 20:13 45.54503 24.29596 6547 ft 151 kts 172°
2026-05-04 20:13 45.53502 24.29780 6555 ft 142 kts 173°
2026-05-04 20:14 45.52477 24.29961 6562 ft 155 kts 173°
2026-05-04 20:14 45.51392 24.30152 6555 ft 158 kts 173°
2026-05-04 20:14 45.50314 24.30343 6552 ft 157 kts 174°
2026-05-04 20:14 45.49229 24.30533 6557 ft 158 kts 173°
2026-05-04 20:15 45.48121 24.30725 6557 ft 161 kts 173°
2026-05-04 20:15 45.47010 24.30909 6558 ft 161 kts 174°
2026-05-04 20:15 45.45889 24.31021 6550 ft 162 kts 178°
2026-05-04 20:15 45.44763 24.31087 6548 ft 160 kts 180°
2026-05-04 20:16 45.43652 24.31137 6555 ft 161 kts 179°
2026-05-04 20:16 45.42526 24.31187 6550 ft 161 kts 179°
2026-05-04 20:16 45.41408 24.31245 6555 ft 162 kts 179°
2026-05-04 20:16 45.40286 24.31379 6554 ft 161 kts 167°
2026-05-04 20:17 45.39283 24.32039 6558 ft 158 kts 143°
2026-05-04 20:17 45.38454 24.33048 6556 ft 156 kts 131°
2026-05-04 20:17 45.37715 24.34176 6552 ft 157 kts 127°
2026-05-04 20:17 45.37000 24.35340 6551 ft 155 kts 125°
2026-05-04 20:18 45.36275 24.36504 6556 ft 160 kts 127°
2026-05-04 20:18 45.35513 24.37686 6549 ft 164 kts 128°
2026-05-04 20:18 45.34719 24.38867 6555 ft 166 kts 130°
2026-05-04 20:18 45.33912 24.40027 6551 ft 165 kts 130°
2026-05-04 20:19 45.33108 24.41157 6548 ft 164 kts 131°
2026-05-04 20:19 45.32298 24.42282 6549 ft 162 kts 131°
2026-05-04 20:19 45.31493 24.43395 6548 ft 160 kts 131°
2026-05-04 20:19 45.30701 24.44494 6548 ft 158 kts 131°
2026-05-04 20:20 45.29917 24.45583 6546 ft 157 kts 131°
2026-05-04 20:20 45.29136 24.46674 6547 ft 157 kts 131°
2026-05-04 20:20 45.28352 24.47772 6543 ft 158 kts 130°
2026-05-04 20:20 45.27575 24.48862 6545 ft 156 kts 130°
2026-05-04 20:21 45.27063 24.49580 6543 ft 156 kts 130°
2026-05-04 20:21 45.26290 24.50667 6543 ft 157 kts 130°
2026-05-04 20:21 45.24742 24.52843 6545 ft 157 kts 130°
2026-05-04 20:22 45.23970 24.53927 6541 ft 156 kts 130°
2026-05-04 20:22 45.22949 24.55359 6544 ft 155 kts 130°
2026-05-04 20:22 45.22430 24.56087 6540 ft 155 kts 130°
2026-05-04 20:22 45.21662 24.57163 6545 ft 155 kts 130°
2026-05-04 20:23 45.20897 24.58235 6543 ft 155 kts 130°
2026-05-04 20:23 45.20133 24.59306 6541 ft 154 kts 130°
2026-05-04 20:23 45.19365 24.60381 6543 ft 155 kts 130°
2026-05-04 20:23 45.18599 24.61454 6539 ft 155 kts 130°
2026-05-04 20:24 45.17831 24.62529 6540 ft 155 kts 130°
2026-05-04 20:24 45.17065 24.63601 6538 ft 155 kts 130°
2026-05-04 20:24 45.16295 24.64679 6541 ft 155 kts 130°
2026-05-04 20:24 45.15527 24.65752 6540 ft 155 kts 130°
2026-05-04 20:25 45.14759 24.66824 6534 ft 154 kts 130°
2026-05-04 20:25 45.13932 24.67793 6535 ft 157 kts 144°
2026-05-04 20:25 45.12932 24.68408 6538 ft 159 kts 158°
2026-05-04 20:25 45.11857 24.68824 6534 ft 160 kts 163°
2026-05-04 20:26 45.10769 24.69165 6538 ft 161 kts 165°
2026-05-04 20:26 45.09671 24.69510 6533 ft 160 kts 164°
2026-05-04 20:26 45.08589 24.69881 6535 ft 160 kts 162°
2026-05-04 20:26 45.07525 24.70281 6530 ft 159 kts 161°
2026-05-04 20:27 45.06458 24.70711 6530 ft 159 kts 161°
2026-05-04 20:27 45.05401 24.71154 6535 ft 158 kts 160°
2026-05-04 20:27 45.04347 24.71603 6534 ft 158 kts 160°
2026-05-04 20:27 45.03296 24.72052 6534 ft 158 kts 160°
2026-05-04 20:28 45.02245 24.72500 6530 ft 157 kts 160°
2026-05-04 20:28 45.01196 24.72942 6531 ft 157 kts 161°
2026-05-04 20:28 45.00146 24.73383 6531 ft 158 kts 161°
2026-05-04 20:28 44.99091 24.73823 6531 ft 158 kts 161°
2026-05-04 20:29 44.98038 24.74259 6528 ft 158 kts 161°
2026-05-04 20:29 44.96995 24.74740 6526 ft 156 kts 153°
2026-05-04 20:29 44.96150 24.75653 6531 ft 151 kts 128°
2026-05-04 20:29 44.95546 24.76845 6529 ft 148 kts 116°
2026-05-04 20:30 44.95063 24.78102 6527 ft 147 kts 112°
2026-05-04 20:30 44.94604 24.79396 6527 ft 147 kts 112°
2026-05-04 20:30 44.94137 24.80682 6525 ft 147 kts 113°
2026-05-04 20:30 44.93650 24.81953 6529 ft 147 kts 115°
2026-05-04 20:31 44.93143 24.83213 6528 ft 148 kts 116°
2026-05-04 20:31 44.92618 24.84468 6527 ft 149 kts 117°
2026-05-04 20:31 44.92084 24.85718 6523 ft 149 kts 117°
2026-05-04 20:31 44.91547 24.86964 6525 ft 149 kts 117°
2026-05-04 20:32 44.91008 24.88209 6527 ft 149 kts 117°
2026-05-04 20:32 44.90466 24.89459 6524 ft 149 kts 118°
2026-05-04 20:32 44.89916 24.90703 6522 ft 150 kts 118°
2026-05-04 20:32 44.89362 24.91943 6525 ft 149 kts 118°
2026-05-04 20:33 44.88811 24.93181 6526 ft 149 kts 118°
2026-05-04 20:33 44.88265 24.94419 6527 ft 148 kts 117°
2026-05-04 20:33 44.87732 24.95639 6522 ft 148 kts 117°
2026-05-04 20:33 44.87188 24.96891 6524 ft 149 kts 117°
2026-05-04 20:34 44.86653 24.98128 6523 ft 149 kts 117°
2026-05-04 20:34 44.86112 24.99380 6521 ft 149 kts 117°
2026-05-04 20:34 44.85576 25.00624 6523 ft 149 kts 117°
2026-05-04 20:34 44.85035 25.01879 6523 ft 149 kts 117°
2026-05-04 20:35 44.84497 25.03126 6519 ft 149 kts 117°
2026-05-04 20:35 44.83960 25.04371 6520 ft 149 kts 116°
2026-05-04 20:35 44.83422 25.05618 6524 ft 149 kts 116°
2026-05-04 20:35 44.82884 25.06865 6522 ft 149 kts 116°
2026-05-04 20:36 44.82347 25.08111 6522 ft 149 kts 116°
2026-05-04 20:36 44.81807 25.09362 6520 ft 150 kts 116°
2026-05-04 20:36 44.81266 25.10615 6520 ft 150 kts 116°
2026-05-04 20:36 44.80722 25.11876 6517 ft 151 kts 116°
2026-05-04 20:37 44.80177 25.13138 6520 ft 151 kts 116°
2026-05-04 20:37 44.79636 25.14393 6518 ft 151 kts 116°
2026-05-04 20:37 44.79088 25.15661 6519 ft 150 kts 116°
2026-05-04 20:37 44.78548 25.16907 6520 ft 149 kts 116°
2026-05-04 20:38 44.78010 25.18149 6518 ft 149 kts 116°
2026-05-04 20:38 44.77469 25.19400 6513 ft 149 kts 116°
2026-05-04 20:38 44.76929 25.20648 6516 ft 149 kts 116°
2026-05-04 20:38 44.76387 25.21900 6513 ft 150 kts 116°
2026-05-04 20:39 44.75845 25.23153 6517 ft 150 kts 116°
2026-05-04 20:39 44.75303 25.24404 6516 ft 150 kts 116°
2026-05-04 20:39 44.74761 25.25654 6515 ft 150 kts 116°
2026-05-04 20:39 44.74219 25.26904 6511 ft 149 kts 115°
2026-05-04 20:40 44.73677 25.28154 6509 ft 150 kts 115°
2026-05-04 20:40 44.73141 25.29388 6510 ft 150 kts 115°
2026-05-04 20:40 44.72598 25.30637 6511 ft 150 kts 115°
2026-05-04 20:40 44.72056 25.31886 6511 ft 149 kts 115°
2026-05-04 20:41 44.71486 25.33113 6509 ft 150 kts 119°
2026-05-04 20:41 44.70844 25.34285 6507 ft 151 kts 123°
2026-05-04 20:41 44.70174 25.35427 6505 ft 152 kts 123°
2026-05-04 20:41 44.69497 25.36565 6508 ft 151 kts 123°
2026-05-04 20:42 44.68867 25.37671 6485 ft 137 kts 119°
2026-05-04 20:42 44.68304 25.38720 6387 ft 132 kts 117°
2026-05-04 20:42 44.67767 25.39742 6268 ft 128 kts 117°
2026-05-04 20:42 44.67241 25.40725 6150 ft 126 kts 117°
2026-05-04 20:43 44.66698 25.41711 6032 ft 125 kts 118°
2026-05-04 20:43 44.66167 25.42653 5929 ft 124 kts 119°
2026-05-04 20:43 44.65625 25.43593 5818 ft 124 kts 120°
2026-05-04 20:43 44.65076 25.44517 5703 ft 123 kts 119°
2026-05-04 20:44 44.64539 25.45429 5583 ft 119 kts 119°
2026-05-04 20:44 44.64020 25.46326 5458 ft 117 kts 119°
2026-05-04 20:44 44.63511 25.47214 5337 ft 116 kts 118°
2026-05-04 20:44 44.63008 25.48092 5232 ft 115 kts 118°
2026-05-04 20:45 44.62509 25.48966 5118 ft 114 kts 119°
2026-05-04 20:45 44.62014 25.49834 5017 ft 114 kts 119°
2026-05-04 20:45 44.61520 25.50701 4912 ft 113 kts 119°
2026-05-04 20:45 44.61032 25.51557 4813 ft 112 kts 119°
2026-05-04 20:46 44.60545 25.52415 4712 ft 112 kts 119°
2026-05-04 20:46 44.60059 25.53269 4614 ft 112 kts 119°
2026-05-04 20:46 44.59575 25.54122 4514 ft 112 kts 120°
2026-05-04 20:46 44.59098 25.54962 4419 ft 112 kts 120°
2026-05-04 20:47 44.58614 25.55814 4321 ft 111 kts 120°
2026-05-04 20:47 44.58132 25.56665 4230 ft 111 kts 121°
2026-05-04 20:47 44.57649 25.57516 4131 ft 111 kts 121°
2026-05-04 20:47 44.57164 25.58370 4040 ft 112 kts 121°
2026-05-04 20:48 44.56681 25.59223 3950 ft 112 kts 121°
2026-05-04 20:48 44.56198 25.60073 3861 ft 112 kts 122°
2026-05-04 20:48 44.55714 25.60927 3776 ft 112 kts 122°
2026-05-04 20:48 44.55231 25.61778 3687 ft 112 kts 122°
2026-05-04 20:49 44.54745 25.62635 3603 ft 112 kts 123°
2026-05-04 20:49 44.54260 25.63490 3517 ft 112 kts 123°
2026-05-04 20:49 44.53775 25.64344 3438 ft 112 kts 123°
2026-05-04 20:49 44.53292 25.65195 3351 ft 112 kts 123°
2026-05-04 20:50 44.52807 25.66049 3270 ft 112 kts 124°
2026-05-04 20:50 44.52330 25.66888 3187 ft 112 kts 124°
2026-05-04 20:50 44.51843 25.67745 3105 ft 112 kts 124°
2026-05-04 20:50 44.51359 25.68598 3014 ft 112 kts 124°
2026-05-04 20:51 44.50871 25.69456 2936 ft 112 kts 124°
2026-05-04 20:51 44.50385 25.70311 2860 ft 112 kts 124°
2026-05-04 20:51 44.50004 25.71245 2778 ft 110 kts 102°
2026-05-04 20:51 44.49895 25.72278 2695 ft 108 kts 90°
2026-05-04 20:52 44.49865 25.73346 2607 ft 108 kts 88°
2026-05-04 20:52 44.49848 25.74052 2561 ft 109 kts 89°
2026-05-04 20:52 44.49806 25.75111 2490 ft 109 kts 90°
2026-05-04 20:52 44.49754 25.76137 2492 ft 102 kts 89°
2026-05-04 20:53 44.49758 25.77126 2487 ft 101 kts 84°
2026-05-04 20:53 44.49786 25.78099 2481 ft 100 kts 84°
2026-05-04 20:53 44.49814 25.79070 2481 ft 100 kts 84°
2026-05-04 20:53 44.49837 25.80042 2486 ft 100 kts 85°
2026-05-04 20:54 44.49856 25.81013 2481 ft 99 kts 85°
2026-05-04 20:54 44.49872 25.81980 2482 ft 99 kts 85°
2026-05-04 20:54 44.49888 25.82952 2480 ft 100 kts 85°
2026-05-04 20:54 44.49904 25.83925 2477 ft 100 kts 85°
2026-05-04 20:55 44.49920 25.84899 2478 ft 100 kts 85°
2026-05-04 20:55 44.49937 25.85876 2481 ft 100 kts 85°
2026-05-04 20:55 44.49965 25.86850 2479 ft 100 kts 84°
2026-05-04 20:55 44.49994 25.87826 2478 ft 100 kts 86°
2026-05-04 20:56 44.49956 25.88810 2482 ft 101 kts 91°
2026-05-04 20:56 44.49884 25.89785 2477 ft 101 kts 92°
2026-05-04 20:56 44.49790 25.90766 2477 ft 101 kts 95°
2026-05-04 20:56 44.49677 25.91737 2481 ft 101 kts 96°
2026-05-04 20:57 44.49562 25.92705 2479 ft 101 kts 96°
2026-05-04 20:57 44.49449 25.93676 2477 ft 101 kts 96°
2026-05-04 20:57 44.49339 25.94646 2477 ft 101 kts 95°
2026-05-04 20:57 44.49233 25.95613 2477 ft 100 kts 93°
2026-05-04 20:58 44.49263 25.96569 2486 ft 99 kts 79°
2026-05-04 20:58 44.49379 25.97522 2485 ft 99 kts 76°
2026-05-04 20:58 44.49511 25.98469 2478 ft 99 kts 75°
2026-05-04 20:58 44.49658 25.99411 2482 ft 99 kts 73°
2026-05-04 20:59 44.49684 26.00386 2478 ft 101 kts 90°
2026-05-04 20:59 44.49602 26.01364 2480 ft 102 kts 95°
2026-05-04 20:59 44.49496 26.02348 2482 ft 102 kts 95°
2026-05-04 20:59 44.49388 26.03334 2481 ft 102 kts 95°
2026-05-04 21:00 44.49290 26.04281 2480 ft 95 kts 92°
2026-05-04 21:00 44.49326 26.05180 2477 ft 91 kts 77°
2026-05-04 21:00 44.49425 26.05997 2315 ft 87 kts 73°
2026-05-04 21:00 44.49552 26.06846 2031 ft 85 kts 68°
2026-05-04 21:01 44.49673 26.07384 1885 ft 29 kts 54°
2026-05-04 21:01 44.49636 26.07468 1684 ft 17 kts 56°
2026-05-04 21:01 44.49474 26.07352 1669 ft 22 kts 60°
2026-05-04 21:01 44.49417 26.07418 1494 ft 24 kts 57°
2026-05-04 21:02 44.49553 26.07756 1086 ft 49 kts 45°
2026-05-04 21:02 44.49721 26.07965 805 ft 20 kts 39°
2026-05-04 21:02 44.49795 26.07986 577 ft 6 kts 52°
2026-05-04 21:02 44.49801 26.07963 532 ft 4 kts 63°
2026-05-04 21:03 44.49877 26.08176 552 ft 36 kts 60°
2026-05-04 21:03 44.49945 26.08466 436 ft 25 kts 58°
2026-05-04 21:03 44.49976 26.08598 388 ft 18 kts 58°
2026-05-04 21:03 44.50008 26.08754 338 ft 14 kts 59°
2026-05-04 21:04 44.50037 26.08886 353 ft 14 kts 60°
2026-05-04 21:04 44.50071 26.09055 355 ft 21 kts 59°
2026-05-04 21:04 44.50129 26.09228 360 ft 19 kts 73°
2026-05-04 21:04 44.50162 26.09419 328 ft 20 kts 73°
2026-05-04 21:05 44.50198 26.09628 330 ft 30 kts 72°
2026-05-04 21:05 44.50253 26.09886 343 ft 25 kts 71°
2026-05-04 21:05 44.50293 26.10104 332 ft 21 kts 71°
2026-05-04 21:05 44.50329 26.10266 338 ft 14 kts 76°
2026-05-04 21:06 44.50356 26.10354 368 ft 9 kts 138°
2026-05-04 21:06 44.50296 26.10436 388 ft 22 kts 175°
2026-05-04 21:06 44.50127 26.10477 459 ft 20 kts 270°
2026-05-04 21:06 44.50103 26.10200 442 ft 29 kts 261°
2026-05-04 21:07 44.50055 26.09978 420 ft 21 kts 264°
2026-05-04 21:07 44.50004 26.09700 438 ft 36 kts 254°
2026-05-04 21:07 44.49930 26.09307 418 ft 54 kts 263°
2026-05-04 21:07 44.49833 26.08852 401 ft 40 kts 254°
2026-05-04 21:08 44.49724 26.08572 406 ft 27 kts 270°
2026-05-04 21:08 44.49646 26.08430 426 ft 8 kts 55°
2026-05-04 21:08 44.49628 26.08511 321 ft 20 kts 64°
2026-05-04 21:08 44.49640 26.08568 304 ft 0 kts 63°